When you browse on this site, cookies collect data to enhance your experience and personalize the content and advertising you see.
Visit our Privacy Policy to learn more. By continuing to use the site, you agree to this use of cookies and data.
  • In Lithuania
  • List of Countries
  • For 7 days
  • Water Temperature
  • Weather Map
  • Weather Widgets
  • user-avatar
    Login

    Hourly Weather Ngozi

    Today, 20 January, Monday

    Time Temperature Precipitation Wind Pressure Humidity
    00:00 +15°C° 0 mm 0 mps 618 mmHg 93%
    01:00 +15°C° 0 mm 0 mps 618 mmHg 94%
    02:00 +14°C° 0 mm 0 mps 617 mmHg 95%
    03:00 +14°C° 0 mm 0 mps 617 mmHg 95%
    04:00 +15°C° 0 mm 1 mps 617 mmHg 95%
    05:00 +15°C° 0 mm 1 mps 617 mmHg 95%
    06:00 +16°C° 0 mm 1 mps 618 mmHg 93%
    07:00 +17°C° 0 mm 0 mps 619 mmHg 90%
    08:00 +18°C° 0 mm 0 mps 620 mmHg 88%
    09:00 +22°C° 0.1 mm 1 mps 620 mmHg 79%
    10:00 +24°C° 0.1 mm 1 mps 621 mmHg 70%
    11:00 +26°C° 0.1 mm 1 mps 621 mmHg 62%
    12:00 +26°C° 0.3 mm 1 mps 620 mmHg 61%
    13:00 +26°C° 0.3 mm 2 mps 620 mmHg 61%
    14:00 +26°C° 0.3 mm 2 mps 619 mmHg 61%
    15:00 +26°C° 0.9 mm 1 mps 619 mmHg 68%
    16:00 +25°C° 0.9 mm 1 mps 618 mmHg 74%
    17:00 +22°C° 0.9 mm 0 mps 617 mmHg 81%
    18:00 +20°C° 0.2 mm 0 mps 617 mmHg 84%
    19:00 +19°C° 0.2 mm 0 mps 617 mmHg 87%
    20:00 +17°C° 0.2 mm 0 mps 617 mmHg 90%
    21:00 +17°C° 0.1 mm 0 mps 618 mmHg 90%
    22:00 +17°C° 0.1 mm 0 mps 618 mmHg 91%
    23:00 +17°C° 0.1 mm 0 mps 618 mmHg 92%

    Tomorrow, 21 January, Tuesday

    Time Temperature Precipitation Wind Pressure Humidity
    00:00 +17°C° 0.2 mm 0 mps 618 mmHg 93%
    01:00 +19°C° 0.2 mm 1 mps 618 mmHg 93%
    02:00 +19°C° 0.2 mm 1 mps 618 mmHg 94%
    03:00 +19°C° 0.2 mm 1 mps 618 mmHg 94%
    04:00 +18°C° 0.2 mm 1 mps 617 mmHg 93%
    05:00 +16°C° 0.2 mm 0 mps 617 mmHg 93%
    06:00 +17°C° 0.1 mm 0 mps 618 mmHg 93%
    07:00 +19°C° 0.1 mm 1 mps 619 mmHg 92%
    08:00 +20°C° 0.1 mm 1 mps 619 mmHg 91%
    09:00 +21°C° 0.3 mm 1 mps 619 mmHg 89%
    10:00 +19°C° 0.3 mm 0 mps 619 mmHg 86%
    11:00 +20°C° 0.3 mm 0 mps 620 mmHg 83%
    12:00 +23°C° 0.1 mm 1 mps 619 mmHg 76%
    13:00 +24°C° 0.1 mm 1 mps 618 mmHg 69%
    14:00 +25°C° 0.1 mm 1 mps 618 mmHg 63%
    15:00 +25°C° 0 mm 1 mps 618 mmHg 64%
    16:00 +25°C° 0 mm 1 mps 618 mmHg 65%
    17:00 +23°C° 0 mm 0 mps 617 mmHg 66%
    18:00 +21°C° 0 mm 0 mps 617 mmHg 71%
    19:00 +19°C° 0 mm 0 mps 617 mmHg 76%
    20:00 +19°C° 0 mm 1 mps 617 mmHg 81%
    21:00 +18°C° 0 mm 1 mps 617 mmHg 82%
    22:00 +18°C° 0 mm 1 mps 618 mmHg 83%
    23:00 +18°C° 0 mm 1 mps 618 mmHg 85%

    Day after tomorrow, 22 January, Wednesday

    Time Temperature Precipitation Wind Pressure Humidity
    00:00 +18°C° 0 mm 1 mps 618 mmHg 85%
    01:00 +18°C° 0 mm 1 mps 617 mmHg 85%
    02:00 +18°C° 0 mm 1 mps 617 mmHg 85%
    03:00 +15°C° 0 mm 0 mps 617 mmHg 86%
    04:00 +15°C° 0 mm 0 mps 617 mmHg 87%
    05:00 +15°C° 0 mm 0 mps 617 mmHg 89%
    06:00 +16°C° 0 mm 0 mps 617 mmHg 86%
    07:00 +17°C° 0 mm 0 mps 618 mmHg 84%
    08:00 +18°C° 0 mm 0 mps 619 mmHg 82%
    09:00 +19°C° 0.1 mm 0 mps 619 mmHg 77%
    10:00 +23°C° 0.1 mm 1 mps 620 mmHg 72%
    11:00 +24°C° 0.1 mm 1 mps 620 mmHg 67%
    12:00 +25°C° 0.1 mm 1 mps 619 mmHg 64%
    13:00 +26°C° 0.1 mm 1 mps 619 mmHg 61%
    14:00 +27°C° 0.1 mm 1 mps 618 mmHg 58%
    15:00 +25°C° 0.4 mm 1 mps 617 mmHg 66%
    16:00 +24°C° 0.4 mm 1 mps 617 mmHg 74%
    17:00 +22°C° 0.4 mm 1 mps 616 mmHg 82%
    18:00 +21°C° 0 mm 1 mps 617 mmHg 83%
    19:00 +21°C° 0 mm 1 mps 617 mmHg 84%
    20:00 +20°C° 0 mm 1 mps 618 mmHg 85%
    21:00 +19°C° 0.1 mm 1 mps 618 mmHg 86%
    22:00 +17°C° 0.1 mm 0 mps 618 mmHg 87%
    23:00 +16°C° 0.1 mm 0 mps 618 mmHg 88%

    23 January, Thursday

    Time Temperature Precipitation Wind Pressure Humidity
    00:00 +16°C° 0.1 mm 0 mps 618 mmHg 88%
    01:00 +16°C° 0.1 mm 0 mps 617 mmHg 89%
    02:00 +15°C° 0.1 mm 0 mps 617 mmHg 90%
    03:00 +15°C° 0 mm 0 mps 617 mmHg 91%
    04:00 +15°C° 0 mm 0 mps 617 mmHg 92%
    05:00 +15°C° 0 mm 0 mps 617 mmHg 92%
    06:00 +16°C° 0 mm 0 mps 618 mmHg 89%
    07:00 +17°C° 0 mm 0 mps 619 mmHg 86%
    08:00 +18°C° 0 mm 0 mps 619 mmHg 83%
    09:00 +20°C° 0.1 mm 0 mps 620 mmHg 75%
    10:00 +24°C° 0.1 mm 1 mps 620 mmHg 67%
    11:00 +25°C° 0.1 mm 1 mps 620 mmHg 59%
    12:00 +26°C° 0.3 mm 1 mps 620 mmHg 60%
    13:00 +26°C° 0.3 mm 1 mps 619 mmHg 60%
    14:00 +26°C° 0.3 mm 1 mps 618 mmHg 60%
    15:00 +25°C° 0.4 mm 1 mps 618 mmHg 67%
    16:00 +24°C° 0.4 mm 1 mps 617 mmHg 73%
    17:00 +23°C° 0.4 mm 1 mps 617 mmHg 80%
    18:00 +22°C° 0.1 mm 1 mps 617 mmHg 82%
    19:00 +19°C° 0.1 mm 0 mps 618 mmHg 84%
    20:00 +18°C° 0.1 mm 0 mps 618 mmHg 87%
    21:00 +17°C° 0.2 mm 0 mps 618 mmHg 87%
    22:00 +17°C° 0.2 mm 0 mps 618 mmHg 88%
    23:00 +17°C° 0.2 mm 0 mps 619 mmHg 88%

    24 January, Friday

    Time Temperature Precipitation Wind Pressure Humidity
    00:00 +19°C° 0.2 mm 1 mps 618 mmHg 89%
    01:00 +19°C° 0.2 mm 1 mps 618 mmHg 90%
    02:00 +19°C° 0.2 mm 1 mps 618 mmHg 90%
    03:00 +18°C° 0.1 mm 1 mps 618 mmHg 90%
    04:00 +16°C° 0.1 mm 0 mps 618 mmHg 90%
    05:00 +16°C° 0.1 mm 0 mps 618 mmHg 90%
    06:00 +17°C° 0.1 mm 0 mps 618 mmHg 90%
    07:00 +17°C° 0.1 mm 0 mps 619 mmHg 89%
    08:00 +18°C° 0.1 mm 0 mps 619 mmHg 88%
    09:00 +20°C° 0.4 mm 0 mps 620 mmHg 82%
    10:00 +21°C° 0.4 mm 0 mps 620 mmHg 76%
    11:00 +23°C° 0.4 mm 0 mps 620 mmHg 70%
    12:00 +23°C° 0.2 mm 0 mps 620 mmHg 65%
    13:00 +26°C° 0.2 mm 1 mps 619 mmHg 60%
    14:00 +27°C° 0.2 mm 1 mps 619 mmHg 55%
    15:00 +25°C° 0.3 mm 1 mps 618 mmHg 64%
    16:00 +23°C° 0.3 mm 2 mps 617 mmHg 72%
    17:00 +21°C° 0.3 mm 2 mps 616 mmHg 80%
    18:00 +21°C° 0.1 mm 1 mps 617 mmHg 81%
    19:00 +20°C° 0.1 mm 1 mps 617 mmHg 83%
    20:00 +17°C° 0.1 mm 0 mps 617 mmHg 84%
    21:00 +17°C° 0 mm 0 mps 618 mmHg 84%
    22:00 +17°C° 0 mm 0 mps 618 mmHg 83%
    23:00 +17°C° 0 mm 0 mps 618 mmHg 83%

    25 January, Saturday

    Time Temperature Precipitation Wind Pressure Humidity
    00:00 +17°C° 0 mm 0 mps 618 mmHg 83%
    01:00 +17°C° 0 mm 0 mps 618 mmHg 83%
    02:00 +17°C° 0 mm 0 mps 618 mmHg 83%
    03:00 +16°C° 0 mm 0 mps 618 mmHg 84%
    04:00 +16°C° 0 mm 0 mps 618 mmHg 85%
    05:00 +16°C° 0 mm 0 mps 618 mmHg 86%
    06:00 +16°C° 0.1 mm 0 mps 618 mmHg 85%
    07:00 +17°C° 0.1 mm 0 mps 619 mmHg 85%
    08:00 +17°C° 0.1 mm 0 mps 619 mmHg 84%
    09:00 +18°C° 0.1 mm 0 mps 619 mmHg 82%
    10:00 +19°C° 0.1 mm 0 mps 619 mmHg 80%
    11:00 +20°C° 0.1 mm 0 mps 619 mmHg 78%
    12:00 +23°C° 0 mm 1 mps 619 mmHg 69%
    13:00 +25°C° 0 mm 1 mps 619 mmHg 60%
    14:00 +26°C° 0 mm 2 mps 619 mmHg 51%
    15:00 +26°C° 0.1 mm 1 mps 618 mmHg 56%
    16:00 +25°C° 0.1 mm 1 mps 618 mmHg 62%
    17:00 +25°C° 0.1 mm 1 mps 618 mmHg 67%
    18:00 +23°C° 0.1 mm 1 mps 618 mmHg 71%
    19:00 +21°C° 0.1 mm 1 mps 618 mmHg 76%
    20:00 +19°C° 0.1 mm 1 mps 617 mmHg 80%
    21:00 +17°C° 0.1 mm 0 mps 618 mmHg 82%
    22:00 +16°C° 0.1 mm 0 mps 618 mmHg 84%
    23:00 +16°C° 0.1 mm 0 mps 618 mmHg 85%
    Show more